period_start,C,m1,H,J0,J1,J2,J3,J4,J5,JA,JB,JC,JD,JJ,JK,JN,#
2016-04-16 00:00:50,0.10,2.87,0.00,17.27,22.07,25.36,15.06,51.13,1024.44,2054.12,2476.76,2450.58,2776.35,600.31,612.80,19.18,0000 0000 0000 0000 000000
2016-04-16 00:05:52,0.10,2.88,0.00,17.29,22.08,25.38,15.01,51.01,1024.45,2054.07,2475.05,2449.37,2774.86,599.92,612.25,19.23,0000 0000 0000 0000 000000
2016-04-16 00:10:53,0.10,2.88,0.00,17.30,22.09,25.38,14.99,51.07,1024.44,2054.03,2473.39,2448.15,2773.50,600.07,612.40,19.28,0000 0000 0000 0000 000000
2016-04-16 00:15:54,0.10,2.89,0.00,17.32,22.10,25.39,15.01,51.06,1024.44,2054.05,2471.86,2447.04,2772.25,599.83,612.19,19.33,0000 0000 0000 0000 000000
2016-04-16 00:20:55,0.09,2.89,0.00,17.33,22.12,25.41,15.00,50.94,1024.43,2054.03,2470.38,2445.99,2771.08,599.99,612.34,19.38,0000 0000 0000 0000 000000
2016-04-16 00:25:56,0.13,2.90,0.00,17.37,22.12,25.45,15.09,51.02,1024.43,2054.02,2468.63,2444.84,2769.76,600.27,612.39,19.43,0000 0000 0000 0000 000000
2016-04-16 00:30:57,0.07,2.90,0.00,17.38,22.12,25.42,15.01,51.05,1024.43,2054.02,2467.39,2443.87,2768.65,599.85,612.12,19.48,0000 0000 0000 0000 000000
2016-04-16 00:35:59,0.12,2.91,0.00,17.38,22.12,25.45,15.05,51.11,1024.42,2054.00,2465.71,2442.70,2767.28,600.01,612.24,19.53,0000 0000 0000 0000 000000
2016-04-16 00:41:00,0.11,2.92,0.00,17.39,22.13,25.43,15.07,51.14,1024.40,2054.00,2464.07,2441.52,2765.84,600.27,612.49,19.58,0000 0000 0000 0000 000000
2016-04-16 00:46:01,0.10,2.92,0.00,17.41,22.12,25.47,14.99,51.26,1024.35,2054.00,2462.50,2440.45,2764.58,599.97,612.24,19.64,0000 0000 0000 0000 000000
2016-04-16 00:51:03,0.10,2.93,0.00,17.44,22.13,25.46,15.05,51.18,1024.40,2054.00,2460.90,2439.31,2763.37,600.19,612.27,19.69,0000 0000 0000 0000 000000
2016-04-16 00:56:04,0.10,2.93,0.00,17.48,22.13,25.48,15.01,50.97,1024.41,2054.00,2459.41,2438.20,2762.09,600.09,612.11,19.74,0000 0000 0000 0000 000000
2016-04-16 01:01:06,0.10,2.94,0.00,17.50,22.14,25.51,15.00,51.08,1024.41,2054.00,2457.88,2437.18,2760.90,600.00,612.04,19.79,0000 0000 0000 0000 000000
2016-04-16 01:06:07,0.10,2.94,0.00,17.51,22.14,25.49,15.00,51.06,1024.38,2054.00,2456.54,2436.21,2759.78,600.00,611.88,19.84,0000 0000 0000 0000 000000
2016-04-16 01:11:09,0.10,2.95,0.00,17.53,22.15,25.49,14.97,51.03,1024.31,2054.00,2455.00,2435.07,2758.51,599.88,611.73,19.89,0000 0000 0000 0000 000000
2016-04-16 01:16:10,0.10,2.95,0.00,17.56,22.17,25.51,14.95,51.06,1024.22,2053.99,2453.49,2433.95,2757.21,599.71,611.40,19.94,0000 0000 0000 0000 000000
2016-04-16 01:21:11,0.12,2.96,0.00,17.61,22.18,25.51,15.05,51.19,1024.23,2053.99,2451.84,2432.80,2755.85,600.20,611.80,19.99,0000 0000 0000 0000 000000
2016-04-16 01:26:12,0.10,2.96,0.00,17.64,22.20,25.53,15.03,51.22,1024.22,2053.99,2450.33,2431.73,2754.61,600.04,611.60,20.04,0000 0000 0000 0000 000000
2016-04-16 01:31:14,0.11,2.97,0.00,17.67,22.22,25.56,15.06,51.18,1024.03,2053.98,2448.76,2430.63,2753.37,600.24,611.63,20.09,0000 0000 0000 0000 000000
2016-04-16 01:36:15,0.11,2.98,0.00,17.69,22.24,25.56,14.92,51.21,1023.99,2053.98,2447.19,2429.45,2752.00,599.69,611.08,20.14,0000 0000 0000 0000 000000
2016-04-16 01:41:16,0.11,2.98,0.00,17.71,22.27,25.57,15.02,51.13,1024.13,2053.98,2445.58,2428.34,2750.79,600.38,611.81,20.19,0000 0000 0000 0000 000000
2016-04-16 01:46:18,0.08,2.99,0.00,17.75,22.29,25.60,14.99,51.16,1024.29,2053.86,2444.03,2427.14,2749.47,600.38,611.72,20.24,0000 0000 0000 0000 000000
2016-04-16 01:51:19,0.10,2.99,0.00,17.76,22.32,25.63,15.00,51.19,1024.34,2053.77,2442.54,2425.99,2748.21,600.23,611.59,20.29,0000 0000 0000 0000 000000
2016-04-16 01:56:20,0.10,3.00,0.00,17.81,22.34,25.64,14.99,51.31,1024.36,2053.53,2440.88,2424.83,2746.84,600.00,611.42,20.34,0000 0000 0000 0000 000000
2016-04-16 02:01:22,0.05,3.00,0.00,17.85,22.38,25.66,15.04,51.32,1024.32,2053.14,2439.47,2423.84,2745.67,600.37,611.38,20.39,0000 0000 0000 0000 000000
2016-04-16 02:06:23,0.06,3.00,0.00,17.90,22.40,25.69,14.97,51.13,1024.27,2053.05,2438.46,2423.02,2744.80,600.41,611.44,20.44,0000 0000 0000 0000 000000
2016-04-16 02:11:24,0.07,3.01,0.00,17.94,22.43,25.69,14.99,51.13,1024.20,2053.02,2437.51,2422.16,2743.94,600.00,610.92,20.49,0000 0000 0000 0000 000000
2016-04-16 02:16:26,0.08,3.01,0.00,17.97,22.45,25.72,14.88,51.12,1024.25,2053.00,2436.33,2421.35,2742.94,599.67,610.49,20.54,0000 0000 0000 0000 000000
2016-04-16 02:21:27,0.13,3.02,0.00,18.00,22.47,25.73,14.95,51.05,1024.10,2052.99,2434.51,2420.07,2741.45,600.06,610.78,20.59,0000 0000 0000 0000 000000
2016-04-16 02:26:28,0.15,3.02,0.00,18.04,22.49,25.77,14.88,51.06,1023.99,2052.99,2432.50,2418.55,2739.73,599.80,610.41,20.64,0000 0000 0000 0000 000000
2016-04-16 02:31:30,0.09,3.03,0.00,18.08,22.50,25.84,14.99,51.23,1023.97,2052.97,2430.95,2417.30,2738.45,600.36,610.87,20.69,0000 0000 0000 0000 000000
2016-04-16 02:36:31,0.05,3.03,0.00,18.10,22.52,25.87,14.96,51.06,1023.98,2052.98,2429.98,2416.79,2737.72,600.22,610.66,20.74,0000 0000 0000 0000 000000
2016-04-16 02:41:32,0.05,3.04,0.00,18.14,22.52,25.90,14.95,50.99,1023.97,2052.93,2429.04,2416.04,2736.96,599.87,610.13,20.79,0000 0000 0000 0000 000000
2016-04-16 02:46:33,0.06,3.04,0.00,18.18,22.53,25.95,14.95,51.14,1023.97,2052.83,2428.12,2415.52,2736.11,600.06,610.32,20.84,0000 0000 0000 0000 000000
2016-04-16 02:51:35,0.03,3.04,0.00,18.21,22.54,25.98,14.97,51.01,1023.96,2052.82,2427.44,2414.99,2735.78,600.19,610.41,20.89,0000 0000 0000 0000 000000
2016-04-16 02:56:36,0.03,3.04,0.00,18.25,22.55,26.03,14.93,50.98,1023.96,2052.57,2426.53,2414.35,2735.02,599.83,609.97,20.94,0000 0000 0000 0000 000000
2016-04-16 03:01:38,0.02,3.05,0.00,18.28,22.57,26.04,14.92,50.80,1023.96,2052.35,2425.77,2413.97,2734.25,599.82,609.97,20.99,0000 0000 0000 0000 000000
2016-04-16 03:06:39,0.05,3.05,0.00,18.31,22.58,26.06,14.97,50.89,1023.96,2052.27,2425.01,2413.18,2733.87,600.13,610.13,21.04,0000 0000 0000 0000 000000
2016-04-16 03:11:40,0.03,3.05,0.00,18.35,22.59,26.09,14.97,50.92,1024.03,2052.12,2424.16,2412.91,2733.07,600.18,610.11,21.09,0000 0000 0000 0000 000000
2016-04-16 03:16:41,0.06,3.05,0.00,18.38,22.62,26.12,14.85,50.97,1024.12,2052.07,2423.62,2412.10,2732.61,599.76,609.68,21.14,0000 0000 0000 0000 000000
2016-04-16 03:21:42,0.02,3.05,0.00,18.41,22.63,26.13,14.94,50.91,1024.17,2052.06,2422.89,2411.85,2732.00,599.92,609.92,21.19,0000 0000 0000 0000 000000
2016-04-16 03:26:44,0.07,3.06,0.00,18.45,22.66,26.17,14.97,50.86,1024.27,2052.01,2422.07,2411.06,2731.22,599.82,609.70,21.24,0000 0000 0000 0000 000000
2016-04-16 03:31:45,0.05,3.06,0.00,18.48,22.68,26.19,14.96,50.93,1024.09,2052.00,2421.25,2410.66,2730.75,600.05,609.87,21.29,0000 0000 0000 0000 000000
2016-04-16 03:36:47,0.05,3.06,0.00,18.51,22.71,26.20,14.98,50.89,1024.05,2052.00,2420.53,2410.02,2730.01,600.15,609.82,21.34,0000 0000 0000 0000 000000
2016-04-16 03:41:48,0.06,3.07,0.00,18.55,22.73,26.24,14.93,50.86,1023.98,2051.98,2419.86,2409.36,2729.20,599.88,609.41,21.39,0000 0000 0000 0000 000000
2016-04-16 03:46:49,0.03,3.07,0.00,18.58,22.76,26.25,14.93,50.87,1024.01,2051.98,2419.04,2408.95,2728.76,600.32,609.96,21.44,0000 0000 0000 0000 000000
2016-04-16 03:51:50,0.10,3.07,0.00,18.62,22.79,26.28,14.92,50.85,1024.02,2051.97,2417.90,2408.04,2727.64,600.19,609.46,21.49,0000 0000 0000 0000 000000
2016-04-16 03:56:52,0.04,3.08,0.00,18.66,22.82,26.32,14.92,50.90,1023.99,2051.87,2416.97,2407.17,2726.88,600.11,609.35,21.54,0000 0000 0000 0000 000000
2016-04-16 04:01:53,0.01,3.08,0.00,18.68,22.85,26.35,14.93,50.87,1023.99,2051.55,2416.11,2406.80,2726.08,600.10,609.49,21.59,0000 0000 0000 0000 000000
2016-04-16 04:06:54,0.03,3.08,0.00,18.71,22.88,26.36,14.95,50.78,1024.02,2051.19,2415.61,2406.07,2725.62,600.26,609.44,21.64,0000 0000 0000 0000 000000
2016-04-16 04:11:55,0.01,3.08,0.00,18.74,22.91,26.37,14.92,50.89,1023.97,2051.03,2415.01,2405.92,2725.02,600.16,609.32,21.69,0000 0000 0000 0000 000000
2016-04-16 04:16:56,0.07,3.08,0.00,18.77,22.93,26.41,14.93,50.83,1024.00,2051.01,2414.44,2405.19,2724.66,600.11,609.23,21.74,0000 0000 0000 0000 000000
2016-04-16 04:21:57,0.01,3.08,0.00,18.79,22.96,26.44,14.90,50.79,1024.01,2051.00,2413.99,2405.00,2724.02,600.22,609.26,21.79,0000 0000 0000 0000 000000
2016-04-16 04:26:59,0.06,3.08,0.00,18.81,22.99,26.46,14.94,50.83,1023.98,2051.00,2413.35,2404.55,2723.72,600.13,609.09,21.84,0000 0000 0000 0000 000000
2016-04-16 04:32:00,0.01,3.09,0.00,18.84,23.02,26.50,14.94,50.86,1024.01,2050.97,2412.99,2404.02,2723.04,600.47,609.53,21.89,0000 0000 0000 0000 000000
2016-04-16 04:37:01,0.04,3.09,0.00,18.87,23.05,26.52,14.90,50.86,1024.01,2050.95,2412.27,2403.85,2722.71,600.05,608.96,21.94,0000 0000 0000 0000 000000
2016-04-16 04:42:02,0.03,3.09,0.00,18.89,23.08,26.55,14.88,50.89,1024.01,2050.87,2412.00,2403.15,2722.04,600.00,609.05,21.99,0000 0000 0000 0000 000000
2016-04-16 04:47:03,-0.03,3.09,0.00,18.92,23.11,26.57,14.91,50.98,1024.05,2050.54,2411.47,2403.00,2721.99,600.06,608.79,22.04,0000 0000 0000 0000 000000
2016-04-16 04:52:05,0.01,3.09,0.00,18.95,23.13,26.61,14.92,50.96,1023.97,2050.24,2411.01,2402.79,2721.34,600.14,608.86,22.09,0000 0000 0000 0000 000000
2016-04-16 04:57:07,0.04,3.09,0.00,18.98,23.16,26.63,14.91,50.85,1023.96,2050.06,2410.42,2402.10,2721.00,600.29,608.94,22.14,0000 0000 0000 0000 000000
2016-04-16 05:02:08,0.01,3.09,0.00,19.00,23.19,26.63,14.94,50.86,1023.95,2050.01,2409.99,2401.99,2720.56,600.33,608.88,22.19,0000 0000 0000 0000 000000
2016-04-16 05:07:09,0.05,3.09,0.00,19.03,23.21,26.65,14.91,50.97,1023.96,2050.01,2409.26,2401.51,2720.02,600.11,608.61,22.24,0000 0000 0000 0000 000000
2016-04-16 05:12:11,0.01,3.10,0.00,19.05,23.24,26.71,14.84,50.86,1023.96,2050.00,2408.99,2401.01,2719.80,599.70,608.08,22.29,0000 0000 0000 0000 000000
2016-04-16 05:17:12,0.04,3.10,0.00,19.07,23.26,26.74,14.91,50.80,1023.98,2049.99,2408.30,2400.90,2719.05,600.36,608.85,22.34,0000 0000 0000 0000 000000
2016-04-16 05:22:13,0.04,3.10,0.00,19.10,23.29,26.76,14.91,50.83,1023.96,2049.98,2407.94,2400.15,2718.72,600.26,608.57,22.39,0000 0000 0000 0000 000000
2016-04-16 05:27:15,0.02,3.10,0.00,19.12,23.31,26.78,14.92,50.89,1023.96,2049.93,2407.19,2400.00,2718.03,600.30,608.61,22.44,0000 0000 0000 0000 000000
2016-04-16 05:32:16,-0.00,3.10,0.00,19.14,23.34,26.82,14.94,50.93,1023.95,2049.68,2406.97,2399.72,2717.89,600.10,608.37,22.49,0000 0000 0000 0000 000000
2016-04-16 05:37:17,0.01,3.10,0.00,19.16,23.36,26.84,14.89,51.06,1023.94,2049.23,2406.18,2399.07,2717.14,599.99,608.16,22.54,0000 0000 0000 0000 000000
2016-04-16 05:42:19,-0.00,3.10,0.00,19.19,23.38,26.87,14.93,50.84,1023.95,2049.08,2405.93,2398.98,2716.97,600.24,608.41,22.59,0000 0000 0000 0000 000000
2016-04-16 05:47:20,0.07,3.11,0.00,19.22,23.41,26.88,14.88,50.82,1023.94,2049.03,2405.19,2398.42,2716.41,599.97,608.07,22.64,0000 0000 0000 0000 000000
2016-04-16 05:52:21,0.01,3.11,0.00,19.23,23.43,26.91,14.89,50.63,1023.94,2049.01,2404.97,2398.01,2716.01,600.07,608.25,22.69,0000 0000 0000 0000 000000
2016-04-16 05:57:22,0.04,3.11,0.00,19.26,23.46,26.93,14.83,50.51,1023.95,2049.00,2404.16,2397.91,2715.56,599.67,607.58,22.74,0000 0000 0000 0000 000000
2016-04-16 06:02:23,0.04,3.11,0.00,19.29,23.48,26.95,14.88,50.77,1024.00,2049.00,2403.85,2397.18,2715.01,600.01,607.98,22.79,0000 0000 0000 0000 000000
2016-04-16 06:07:24,0.06,3.11,0.00,19.32,23.50,26.97,14.95,50.81,1024.06,2049.00,2402.91,2396.75,2714.40,600.32,608.30,22.84,0000 0000 0000 0000 000000
2016-04-16 06:12:26,0.06,3.12,0.00,19.34,23.52,27.01,14.88,50.74,1024.00,2048.99,2401.94,2396.03,2713.60,599.80,607.72,22.89,0000 0000 0000 0000 000000
2016-04-16 06:17:27,0.05,3.12,0.00,19.36,23.55,27.01,14.87,50.80,1024.00,2048.94,2401.10,2395.57,2713.00,599.78,607.60,22.94,0000 0000 0000 0000 000000
2016-04-16 06:22:28,0.03,3.12,0.00,19.37,23.57,27.00,14.86,50.78,1023.99,2048.86,2400.62,2395.02,2712.52,599.77,607.58,22.99,0000 0000 0000 0000 000000
2016-04-16 06:27:30,-0.03,3.12,0.00,19.39,23.59,27.03,14.92,50.90,1024.02,2048.52,2400.03,2394.97,2712.02,600.26,608.10,23.05,0000 0000 0000 0000 000000
2016-04-16 06:32:31,0.03,3.12,0.00,19.42,23.62,27.08,14.89,50.87,1024.00,2048.26,2399.75,2394.26,2711.88,599.98,607.91,23.10,0000 0000 0000 0000 000000
2016-04-16 06:37:32,0.01,3.12,0.00,19.45,23.64,27.08,14.82,50.83,1023.97,2048.05,2399.04,2394.00,2711.11,600.02,607.68,23.15,0000 0000 0000 0000 000000
2016-04-16 06:42:33,0.05,3.12,0.00,19.48,23.66,27.10,14.86,50.83,1023.96,2048.04,2398.46,2393.68,2710.86,600.28,607.86,23.20,0000 0000 0000 0000 000000
2016-04-16 06:47:35,0.04,3.13,0.00,19.50,23.69,27.14,14.88,50.87,1023.95,2048.01,2397.78,2393.03,2710.07,600.00,607.54,23.25,0000 0000 0000 0000 000000
2016-04-16 06:52:36,0.05,3.13,0.00,19.52,23.71,27.15,14.86,50.62,1023.96,2048.00,2397.02,2392.58,2709.53,600.15,607.66,23.30,0000 0000 0000 0000 000000
2016-04-16 06:57:38,0.03,3.13,0.00,19.56,23.74,27.19,14.91,50.60,1023.97,2047.99,2396.32,2392.02,2709.01,600.15,607.54,23.35,0000 0000 0000 0000 000000
2016-04-16 07:02:39,0.01,3.13,0.00,19.58,23.76,27.18,14.81,50.66,1023.96,2047.97,2395.98,2391.97,2708.74,600.00,607.41,23.40,0000 0000 0000 0000 000000
2016-04-16 07:07:41,0.06,3.14,0.00,19.60,23.79,27.21,14.87,50.58,1023.95,2047.95,2395.42,2391.44,2708.07,600.01,607.31,23.45,0000 0000 0000 0000 000000
2016-04-16 07:12:42,0.03,3.14,0.00,19.64,23.81,27.20,14.84,50.67,1023.96,2047.86,2394.71,2390.96,2707.64,599.90,607.01,23.50,0000 0000 0000 0000 000000
2016-04-16 07:17:43,0.01,3.14,0.00,19.66,23.83,27.25,14.79,50.63,1023.94,2047.48,2393.91,2390.15,2706.98,599.61,606.83,23.55,0000 0000 0000 0000 000000
2016-04-16 07:22:44,0.01,3.14,0.00,19.69,23.85,27.27,14.85,50.68,1023.94,2047.14,2393.09,2390.00,2706.29,599.95,607.04,23.60,0000 0000 0000 0000 000000
2016-04-16 07:27:45,0.03,3.14,0.00,19.71,23.87,27.28,14.87,50.78,1023.94,2047.05,2392.85,2389.58,2706.00,599.95,606.97,23.65,0000 0000 0000 0000 000000
2016-04-16 07:32:47,0.04,3.14,0.00,19.74,23.89,27.31,14.88,50.57,1023.95,2047.02,2392.10,2389.03,2705.58,599.92,606.93,23.70,0000 0000 0000 0000 000000
2016-04-16 07:37:48,0.01,3.14,0.00,19.77,23.91,27.34,14.84,50.47,1023.96,2047.01,2391.88,2388.96,2705.03,599.39,606.38,23.75,0000 0000 0000 0000 000000
2016-04-16 07:42:49,0.06,3.15,0.00,19.80,23.92,27.37,14.78,50.55,1023.96,2047.00,2391.10,2388.37,2704.83,599.48,606.32,23.80,0000 0000 0000 0000 000000
2016-04-16 07:47:50,0.03,3.15,0.00,19.83,23.95,27.42,14.80,50.57,1023.98,2047.00,2390.78,2388.01,2704.10,600.08,606.95,23.85,0000 0000 0000 0000 000000
2016-04-16 07:52:51,0.02,3.15,0.00,19.85,23.96,27.39,14.81,50.42,1024.10,2047.00,2390.05,2387.89,2703.96,599.84,606.70,23.90,0000 0000 0000 0000 000000
2016-04-16 07:57:53,0.05,3.15,0.00,19.89,23.98,27.36,14.82,50.60,1024.07,2047.00,2389.84,2387.15,2703.29,600.18,606.82,23.95,0000 0000 0000 0000 000000
2016-04-16 08:02:54,0.02,3.15,0.00,19.94,24.01,27.36,14.84,50.64,1023.99,2047.00,2389.09,2387.00,2703.00,599.75,606.31,24.00,0000 0000 0000 0000 000000
2016-04-16 08:07:55,0.02,3.15,0.00,19.97,24.02,27.38,14.83,50.47,1023.96,2047.00,2388.96,2386.84,2702.62,599.87,606.48,24.05,0000 0000 0000 0000 000000
2016-04-16 08:12:57,0.06,3.16,0.00,20.00,24.05,27.42,14.84,50.40,1023.95,2047.00,2388.19,2386.14,2702.03,599.91,606.30,24.10,0000 0000 0000 0000 000000
2016-04-16 08:17:58,0.01,3.16,0.00,20.02,24.07,27.44,14.83,50.49,1023.94,2046.98,2387.95,2386.00,2701.78,599.89,606.34,24.15,0000 0000 0000 0000 000000
2016-04-16 08:22:59,0.05,3.16,0.00,20.06,24.10,27.52,14.80,50.46,1023.94,2046.97,2387.21,2385.70,2701.09,599.94,606.28,24.20,0000 0000 0000 0000 000000
2016-04-16 08:28:01,0.02,3.16,0.00,20.07,24.12,27.56,14.82,50.70,1023.95,2046.96,2386.99,2385.06,2700.98,599.76,606.06,24.25,0000 0000 0000 0000 000000
2016-04-16 08:33:02,0.02,3.16,0.00,20.10,24.14,27.56,14.80,50.42,1023.95,2046.85,2386.27,2384.99,2700.31,599.92,606.25,24.30,0000 0000 0000 0000 000000
2016-04-16 08:38:03,-0.01,3.16,0.00,20.12,24.17,27.59,14.89,50.62,1023.96,2046.49,2385.99,2384.58,2700.00,600.05,606.29,24.35,0000 0000 0000 0000 000000
2016-04-16 08:43:05,0.01,3.16,0.00,20.13,24.19,27.66,14.81,50.67,1023.96,2046.19,2385.37,2384.04,2699.67,600.03,606.29,24.40,0000 0000 0000 0000 000000
2016-04-16 08:48:06,0.01,3.16,0.00,20.14,24.21,27.67,14.82,50.59,1023.96,2046.04,2384.97,2383.96,2699.04,599.78,606.07,24.45,0000 0000 0000 0000 000000
2016-04-16 08:53:07,0.06,3.17,0.00,20.17,24.24,27.70,14.83,50.51,1023.96,2046.00,2384.21,2383.23,2698.76,600.25,606.41,24.50,0000 0000 0000 0000 000000
2016-04-16 08:58:09,0.02,3.17,0.00,20.17,24.26,27.73,14.87,50.63,1023.99,2046.00,2383.99,2383.01,2698.09,599.83,605.97,24.55,0000 0000 0000 0000 000000
2016-04-16 09:03:10,0.02,3.17,0.00,20.17,24.27,27.74,14.87,50.52,1024.09,2046.00,2383.44,2382.92,2697.97,600.38,606.60,24.60,0000 0000 0000 0000 000000
2016-04-16 09:08:11,0.05,3.17,0.00,20.19,24.30,27.76,14.90,50.67,1024.07,2046.00,2382.99,2382.20,2697.31,600.26,606.37,24.65,0000 0000 0000 0000 000000
2016-04-16 09:13:12,0.03,3.17,0.00,20.20,24.32,27.77,14.85,50.56,1024.10,2045.99,2382.38,2381.98,2696.98,599.93,606.32,24.70,0000 0000 0000 0000 000000
2016-04-16 09:18:13,0.10,3.18,0.00,20.19,24.32,27.79,14.79,50.58,1024.14,2045.98,2381.06,2381.09,2695.97,599.86,606.04,24.75,0000 0000 0000 0000 000000
2016-04-16 09:23:15,0.15,3.18,0.00,20.19,24.35,27.82,14.91,50.63,1024.30,2045.95,2379.01,2379.76,2694.56,600.16,606.44,24.80,0000 0000 0000 0000 000000
2016-04-16 09:28:16,0.11,3.19,0.00,20.20,24.36,27.85,14.86,50.63,1024.38,2045.94,2377.15,2378.65,2693.17,599.99,606.28,24.85,0000 0000 0000 0000 000000
2016-04-16 09:33:17,0.01,3.19,0.00,20.20,24.37,27.80,14.88,50.73,1024.21,2045.49,2375.97,2377.94,2692.11,600.13,606.37,24.90,0000 0000 0000 0000 000000
2016-04-16 09:38:19,0.04,3.20,0.00,20.23,24.39,27.79,14.90,50.52,1024.10,2045.30,2375.17,2377.24,2691.94,600.19,606.30,24.95,0000 0000 0000 0000 000000
2016-04-16 09:43:20,0.02,3.20,0.00,20.22,24.40,27.83,14.81,50.40,1023.98,2045.27,2374.93,2377.00,2691.22,600.24,606.38,25.00,0000 0000 0000 0000 000000
2016-04-16 09:48:21,0.03,3.20,0.00,20.22,24.41,27.82,14.81,50.56,1023.97,2045.14,2374.09,2376.65,2690.92,599.82,605.79,25.05,0000 0000 0000 0000 000000
2016-04-16 09:53:23,0.06,3.20,0.00,20.23,24.42,27.80,14.84,50.67,1023.97,2045.06,2373.20,2376.01,2690.10,600.15,606.14,25.10,0000 0000 0000 0000 000000
2016-04-16 09:58:24,0.05,3.20,0.00,20.24,24.43,27.80,14.91,50.66,1023.99,2045.04,2372.55,2375.64,2689.73,600.07,606.07,25.15,0000 0000 0000 0000 000000
2016-04-16 10:03:25,0.03,3.21,0.00,20.23,24.45,27.83,14.87,50.38,1024.11,2045.02,2372.01,2375.03,2689.05,599.71,605.81,25.20,0000 0000 0000 0000 000000
2016-04-16 10:08:26,0.02,3.21,0.00,20.23,24.45,27.85,14.81,50.29,1024.13,2045.00,2371.51,2374.98,2688.96,599.79,605.83,25.25,0000 0000 0000 0000 000000
2016-04-16 10:13:27,0.05,3.21,0.00,20.22,24.47,27.85,14.80,50.36,1024.16,2045.00,2371.00,2374.53,2688.28,599.74,605.96,25.30,0000 0000 0000 0000 000000
2016-04-16 10:18:29,0.02,3.21,0.00,20.22,24.47,27.85,14.91,50.48,1024.11,2045.00,2370.56,2374.03,2688.00,600.43,606.55,25.35,0000 0000 0000 0000 000000
2016-04-16 10:23:30,0.01,3.21,0.00,20.21,24.47,27.87,14.82,50.57,1024.30,2045.00,2370.01,2373.99,2687.77,600.03,606.27,25.40,0000 0000 0000 0000 000000
2016-04-16 10:28:31,0.06,3.21,0.00,20.19,24.48,27.89,14.84,50.47,1024.39,2045.00,2369.38,2373.43,2687.04,600.04,606.33,25.45,0000 0000 0000 0000 000000
2016-04-16 10:33:33,0.01,3.22,0.00,20.19,24.50,27.89,14.81,50.37,1024.40,2045.00,2369.00,2373.02,2686.99,599.92,606.17,25.50,0000 0000 0000 0000 000000
2016-04-16 10:38:34,0.02,3.22,0.00,20.19,24.50,27.89,14.77,50.42,1024.36,2045.00,2368.69,2372.99,2686.69,599.70,606.05,25.55,0000 0000 0000 0000 000000
2016-04-16 10:43:35,0.04,3.22,0.00,20.19,24.50,27.91,14.83,50.49,1024.22,2044.99,2368.03,2372.68,2686.02,600.15,606.44,25.60,0000 0000 0000 0000 000000
2016-04-16 10:48:36,0.03,3.22,0.00,20.18,24.50,27.90,14.85,50.47,1024.26,2044.99,2367.67,2372.09,2685.95,600.03,606.34,25.65,0000 0000 0000 0000 000000
2016-04-16 10:53:38,0.03,3.22,0.00,20.17,24.50,27.88,14.84,50.46,1024.21,2044.99,2367.02,2372.00,2685.20,599.92,606.18,25.70,0000 0000 0000 0000 000000
2016-04-16 10:58:39,0.01,3.22,0.00,20.18,24.50,27.88,14.84,50.36,1024.10,2044.99,2366.88,2371.85,2685.00,600.27,606.39,25.75,0000 0000 0000 0000 000000
2016-04-16 11:03:40,0.05,3.23,0.00,20.19,24.49,27.88,14.84,50.29,1024.04,2044.99,2366.11,2371.13,2684.95,600.08,606.22,25.80,0000 0000 0000 0000 000000
2016-04-16 11:08:41,0.02,3.23,0.00,20.19,24.47,27.86,14.85,50.14,1024.29,2044.99,2365.97,2371.01,2684.32,600.40,606.65,25.85,0000 0000 0000 0000 000000
2016-04-16 11:13:43,0.02,3.23,0.00,20.19,24.47,27.85,14.87,50.25,1024.38,2044.99,2365.22,2370.98,2684.01,600.44,606.74,25.90,0000 0000 0000 0000 000000
2016-04-16 11:18:44,0.01,3.23,0.00,20.14,24.46,27.85,14.85,50.20,1024.42,2044.99,2365.00,2370.77,2683.96,599.87,606.33,25.95,0000 0000 0000 0000 000000
2016-04-16 11:23:45,0.06,3.23,0.00,20.05,24.45,27.84,14.81,50.13,1024.41,2044.99,2364.52,2370.13,2683.34,599.86,606.50,26.00,0000 0000 0000 0000 000000
2016-04-16 11:28:47,0.01,3.23,0.00,19.96,24.43,27.85,14.83,50.27,1024.42,2044.99,2364.01,2370.00,2683.01,599.92,606.81,26.05,0000 0000 0000 0000 000000
2016-04-16 11:33:48,0.02,3.23,0.00,19.87,24.42,27.83,14.88,50.44,1024.35,2044.99,2363.70,2369.98,2682.98,600.30,607.29,26.10,0000 0000 0000 0000 000000
2016-04-16 11:38:50,0.01,3.23,0.00,19.79,24.40,27.84,14.79,50.38,1024.24,2044.99,2363.03,2369.86,2682.87,599.38,606.46,26.15,0000 0000 0000 0000 000000
2016-04-16 11:43:51,0.05,3.24,0.00,19.73,24.38,27.83,14.91,50.51,1024.08,2045.01,2362.99,2369.39,2682.21,599.66,606.79,26.20,0000 0000 0000 0000 000000
2016-04-16 11:48:53,0.03,3.24,0.00,19.66,24.36,27.81,14.81,50.23,1024.05,2045.03,2362.46,2369.07,2682.02,599.89,607.02,26.25,0000 0000 0000 0000 000000
2016-04-16 11:53:54,0.01,3.24,0.00,19.61,24.34,27.78,14.86,50.32,1023.97,2045.11,2362.01,2369.01,2681.99,599.70,606.96,26.30,0000 0000 0000 0000 000000
2016-04-16 11:58:55,0.01,3.24,0.00,19.55,24.31,27.76,14.89,50.35,1023.94,2045.27,2361.89,2369.00,2681.95,600.09,607.54,26.35,0000 0000 0000 0000 000000
2016-04-16 12:03:56,0.09,3.24,0.00,19.51,24.29,27.73,14.89,50.51,1023.94,2045.56,2361.17,2368.97,2681.56,600.04,607.48,26.40,0000 0000 0000 0000 000000
2016-04-16 12:08:57,0.03,3.25,0.00,19.45,24.26,27.71,14.93,50.74,1023.94,2045.92,2361.00,2368.89,2681.10,600.14,607.76,26.45,0000 0000 0000 0000 000000
2016-04-16 12:13:59,0.01,3.25,0.00,19.39,24.24,27.71,14.89,50.69,1023.94,2045.97,2360.97,2368.65,2681.01,599.75,607.47,26.50,0000 0000 0000 0000 000000
2016-04-16 12:19:00,0.03,3.25,0.00,19.35,24.21,27.70,14.96,50.63,1023.94,2045.98,2360.47,2368.16,2681.00,600.28,608.13,26.56,0000 0000 0000 0000 000000
2016-04-16 12:24:01,0.01,3.25,0.00,19.29,24.18,27.65,14.96,50.67,1023.92,2045.99,2360.02,2368.03,2680.99,599.98,607.96,26.61,0000 0000 0000 0000 000000
2016-04-16 12:29:03,0.01,3.25,0.00,19.26,24.16,27.65,14.93,50.60,1023.87,2045.99,2359.96,2368.00,2680.84,600.02,608.15,26.66,0000 0000 0000 0000 000000
2016-04-16 12:34:04,0.03,3.25,0.00,19.23,24.13,27.61,14.94,50.66,1023.84,2045.99,2359.33,2368.00,2680.15,600.05,608.07,26.71,0000 0000 0000 0000 000000
2016-04-16 12:39:05,0.01,3.25,0.00,19.18,24.10,27.61,14.90,50.82,1023.86,2046.01,2359.01,2367.98,2680.01,600.07,608.19,26.76,0000 0000 0000 0000 000000
2016-04-16 12:44:07,0.02,3.25,0.00,19.14,24.06,27.60,14.88,50.88,1023.71,2046.03,2358.97,2367.74,2680.00,599.90,608.07,26.81,0000 0000 0000 0000 000000
2016-04-16 12:49:08,0.06,3.26,0.00,19.08,24.03,27.53,14.95,50.88,1023.55,2046.20,2358.24,2367.24,2679.98,600.20,608.35,26.86,0000 0000 0000 0000 000000
2016-04-16 12:54:09,0.05,3.26,0.00,19.03,24.00,27.53,14.87,50.88,1023.53,2046.64,2358.01,2367.05,2679.96,600.01,608.25,26.91,0000 0000 0000 0000 000000